Location: Podia
(1.5569°N, 32.3469°E)
Time: 02:36:06
(UTC+00:00)

Hubble Space Telescope - Pass Details

Date: 16 May 2021
Orbit: 535 x 539 km, 28.5° (Epoch: 16 June)

Event Time Altitude Azimuth Distance (km) Brightness Sun altitude
Exits shadow 02:37:23 14° 305° (NW) 1,543 2.8 -15.9°
Maximum altitude 02:38:59 17° 332° (NNW) 1,396 2.8 -15.5°
Drops below altitude 10° 02:41:40 10° 14° (NNE) 1,770 3.9 -14.9°
Sets 02:44:34 0° 35° (NE) 2,657 5.3 -14.2°
